This is the latest recevied weather packets stored in our database for station/object K1BES. If no packets are shown the sender has not sent any weather packets the latest 10 day(s).
| Time | Temp. | Humidity | Pressure | Rain* | Wind** | Luminosity | Snow |
|---|---|---|---|---|---|---|---|
| 1787854250 | 28.89° C | 76% | 1018.6 hPa | 0 mm | - | 209 W/m² | - |
| 1787853950 | 28.33° C | 76% | 1018.6 hPa | 0 mm | - | 179 W/m² | - |
| 1787853639 | 28.33° C | 75% | 1018.9 hPa | 0 mm | - | 153 W/m² | - |
| 1787853338 | 27.78° C | 76% | 1018.9 hPa | 0 mm | - | 132 W/m² | - |
| 1787853033 | 27.78° C | 78% | 1019.2 hPa | 0 mm | - | 116 W/m² | - |
| 1787852733 | 27.78° C | 76% | 1019.2 hPa | 0 mm | - | 101 W/m² | - |
| 1787852432 | 27.22° C | 75% | 1019.8 hPa | 0 mm | - | 90 W/m² | - |
| 1787852132 | 27.22° C | 76% | 1019.6 hPa | 0 mm | - | 82 W/m² | - |
| 1787851827 | 26.67° C | 79% | 1019.9 hPa | 0 mm | - | 76 W/m² | - |
| 1787851526 | 26.67° C | 79% | 1019.7 hPa | 0 mm | - | 72 W/m² | - |
| 1787851226 | 26.67° C | 80% | 1020.1 hPa | 0 mm | - | 67 W/m² | - |
| 1787850922 | 26.67° C | 80% | 1019.9 hPa | 0 mm | - | 61 W/m² | - |
| 1787850618 | 26.11° C | 80% | 1019.8 hPa | 0 mm | - | 57 W/m² | - |
| 1787850313 | 26.11° C | 80% | 1019.9 hPa | 0 mm | - | 55 W/m² | - |
| 1787850009 | 26.11° C | 80% | 1020 hPa | 0 mm | - | 54 W/m² | - |
| 1787849708 | 26.11° C | 79% | 1019.9 hPa | 0 mm | - | 55 W/m² | - |
| 1787849404 | 26.11° C | 78% | 1020 hPa | 0 mm | - | 54 W/m² | - |
| 1787849101 | 26.11° C | 78% | 1020.2 hPa | 0 mm | - | 54 W/m² | - |
| 1787848796 | 26.11° C | 79% | 1020.4 hPa | 0 mm | - | 54 W/m² | - |
| 1787848495 | 26.67° C | 79% | 1020.3 hPa | 0 mm | - | 57 W/m² | - |
| 1787848190 | 26.67° C | 79% | 1020.5 hPa | 0 mm | - | 59 W/m² | - |
| 1787847890 | 27.22° C | 77% | 1020.6 hPa | 0 mm | - | 67 W/m² | - |
| 1787847585 | 27.22° C | 77% | 1020.7 hPa | 0 mm | - | 72 W/m² | - |
| 1787847281 | 27.22° C | 78% | 1020.9 hPa | 0 mm | - | 80 W/m² | - |
| 1787846978 | 27.78° C | 81% | 1020.5 hPa | 0 mm | - | 102 W/m² | - |
* Rain latest hour (hover to see other rain measurements)
** Current wind speed in m/s (hover to see current wind gust speed)